軌道要素
Epoch 2022 Jan. 21.0 TT = JDT 2459600.5
T 2021 July 15.30126 TT Rudenko
q 1.9675910 (2000.0) P Q
z +0.0001763 Peri. 356.05254 -0.89449825 -0.15028433
+/-0.0000028 Node 154.51820 +0.43229553 -0.53088091
e 0.9996531 Incl. 78.14968 +0.11398888 +0.83401444
From 260 observations 2021 Jan. 9-2022 Jan. 11, mean residual 0".6.
|